User: anonymous   Login
Location: Boitzum
(52.1496°N, 9.6943°E)
Time: 05:50:20
(UTC+00:00)
Language:

Okean 2 - Orbit

View from above orbital plane
View from above orbital plane
View from above satellite
View from above satellite

Ground track
Ground track

The orbit is defined by the following mean orbital elements,

1 20510U          26067.80524051 +.00000000 +00000-0 +37387-3 0 00008
2 20510  82.5020 332.7320 0004974 308.4772 118.3419 15.15636163    06
Epoch (UTC): 08 March 2026 19:19:32
Eccentricity: 0.0004974
inclination: 82.5020°
perigee height: 516 km
apogee height: 522 km
right ascension of ascending node: 332.7320°
argument of perigee: 308.4772°
revolutions per day: 15.15636163
mean anomaly at epoch: 118.3419°

The dashed part of the orbit path shows where the satellite is in the earth's shadow,  

DLR